Location: Ettringen
(48.1054°N, 10.6545°E)
Time: 20:40:21
(UTC+00:00)

Cosmos 44 Rocket - Pass Details

Date: 18 November 2025
Orbit: 637 x 741 km, 65.1° (Epoch: 10 December)

Event Time Altitude Azimuth Distance (km) Brightness Sun altitude
Rises 16:36:39 0° 200° (SSW) 2,979 7.2 -10.1°
Reaches altitude 10° 16:38:57 10° 196° (SSW) 2,086 6.2 -10.5°
Maximum altitude 16:43:33 51° 120° (ESE) 857 3.5 -11.2°
Enters shadow 16:47:40 14° 48° (NE) 1,929 5.0 -11.9°
